• En España
  • Lista de países
  • Para 7 días
  • Temperatura del agua
  • Mapa Satelital
  • El tiempo en el mapa
  • Informadores
  • user-avatar
    Iniciar sesión

    Tiempo cada hora Tibissa

    Hoy, 16 Diciembre, Sábado

    Tiempo Temperatura Precipitaciones Viento Presión Humedad
    00:00 +8°C° 0 mm 3 mps 681 mmHg 51%
    01:00 +8°C° 0 mm 3 mps 680 mmHg 52%
    02:00 +8°C° 0 mm 3 mps 680 mmHg 54%
    03:00 +8°C° 0 mm 2 mps 680 mmHg 56%
    04:00 +7°C° 0 mm 2 mps 679 mmHg 57%
    05:00 +7°C° 0 mm 2 mps 679 mmHg 58%
    06:00 +7°C° 0 mm 2 mps 679 mmHg 59%
    07:00 +5°C° 0 mm 3 mps 679 mmHg 55%
    08:00 +7°C° 0 mm 3 mps 679 mmHg 54%
    09:00 +9°C° 0 mm 3 mps 680 mmHg 53%
    10:00 +10°C° 0 mm 4 mps 680 mmHg 52%
    11:00 +10°C° 0 mm 4 mps 681 mmHg 56%
    12:00 +9°C° 0 mm 5 mps 681 mmHg 61%
    13:00 +10°C° 0 mm 5 mps 681 mmHg 66%
    14:00 +9°C° 0,1 mm 5 mps 681 mmHg 68%
    15:00 +9°C° 0,1 mm 6 mps 681 mmHg 69%
    16:00 +8°C° 0,1 mm 6 mps 682 mmHg 71%
    17:00 +8°C° 0,2 mm 6 mps 682 mmHg 72%
    18:00 +7°C° 0,2 mm 6 mps 683 mmHg 73%
    19:00 +5°C° 0,2 mm 6 mps 683 mmHg 74%
    20:00 +5°C° 0 mm 6 mps 684 mmHg 76%
    21:00 +5°C° 0 mm 5 mps 684 mmHg 79%
    22:00 +3°C° 0 mm 5 mps 685 mmHg 81%
    23:00 +3°C° 0 mm 5 mps 685 mmHg 82%

    Mañana, 17 Diciembre, Domingo

    Tiempo Temperatura Precipitaciones Viento Presión Humedad
    00:00 +3°C° 0 mm 5 mps 685 mmHg 83%
    01:00 +4°C° 0 mm 4 mps 685 mmHg 84%
    02:00 +3°C° 0 mm 4 mps 685 mmHg 85%
    03:00 +3°C° 0 mm 4 mps 686 mmHg 85%
    04:00 +3°C° 0 mm 4 mps 686 mmHg 86%
    05:00 +1°C° 0 mm 4 mps 686 mmHg 86%
    06:00 +1°C° 0 mm 4 mps 686 mmHg 86%
    07:00 +1°C° 0 mm 4 mps 686 mmHg 87%
    08:00 +1°C° 0 mm 4 mps 687 mmHg 78%
    09:00 +3°C° 0 mm 4 mps 688 mmHg 70%
    10:00 +4°C° 0 mm 4 mps 688 mmHg 62%
    11:00 +5°C° 0 mm 5 mps 688 mmHg 58%
    12:00 +6°C° 0 mm 5 mps 688 mmHg 55%
    13:00 +7°C° 0 mm 5 mps 688 mmHg 51%
    14:00 +7°C° 0 mm 6 mps 688 mmHg 52%
    15:00 +5°C° 0 mm 6 mps 688 mmHg 53%
    16:00 +5°C° 0 mm 6 mps 688 mmHg 54%
    17:00 +5°C° 0 mm 5 mps 688 mmHg 60%
    18:00 +5°C° 0 mm 5 mps 689 mmHg 67%
    19:00 +3°C° 0 mm 5 mps 689 mmHg 73%
    20:00 +2°C° 0 mm 5 mps 689 mmHg 75%
    21:00 +2°C° 0 mm 6 mps 690 mmHg 77%
    22:00 +2°C° 0 mm 6 mps 690 mmHg 78%
    23:00 +1°C° 0 mm 6 mps 690 mmHg 79%

    Pasado mañana, 18 Diciembre, Lunes

    Tiempo Temperatura Precipitaciones Viento Presión Humedad
    00:00 +1°C° 0 mm 6 mps 690 mmHg 80%
    01:00 +1°C° 0 mm 6 mps 690 mmHg 81%
    02:00 -1°C° 0 mm 6 mps 690 mmHg 82%
    03:00 -1°C° 0 mm 6 mps 690 mmHg 83%
    04:00 -1°C° 0 mm 6 mps 690 mmHg 85%
    05:00 -1°C° 0 mm 6 mps 690 mmHg 85%
    06:00 -1°C° 0 mm 7 mps 690 mmHg 85%
    07:00 0°C° 0 mm 7 mps 690 mmHg 85%
    08:00 0°C° 0 mm 7 mps 690 mmHg 79%
    09:00 +1°C° 0 mm 8 mps 691 mmHg 74%
    10:00 +2°C° 0 mm 9 mps 692 mmHg 68%
    11:00 +3°C° 0 mm 9 mps 691 mmHg 64%
    12:00 +3°C° 0 mm 9 mps 691 mmHg 61%
    13:00 +5°C° 0 mm 9 mps 691 mmHg 57%
    14:00 +5°C° 0 mm 8 mps 691 mmHg 58%
    15:00 +4°C° 0 mm 8 mps 690 mmHg 60%
    16:00 +4°C° 0 mm 8 mps 690 mmHg 61%
    17:00 +4°C° 0 mm 7 mps 690 mmHg 66%
    18:00 +3°C° 0 mm 6 mps 690 mmHg 71%
    19:00 +2°C° 0 mm 5 mps 690 mmHg 76%
    20:00 +2°C° 0 mm 5 mps 690 mmHg 78%
    21:00 +3°C° 0 mm 4 mps 690 mmHg 79%
    22:00 +3°C° 0 mm 4 mps 690 mmHg 81%
    23:00 +3°C° 0 mm 4 mps 690 mmHg 82%

    19 Diciembre, Martes

    Tiempo Temperatura Precipitaciones Viento Presión Humedad
    00:00 +3°C° 0 mm 4 mps 690 mmHg 82%
    01:00 +3°C° 0 mm 3 mps 689 mmHg 83%
    02:00 +3°C° 0,2 mm 4 mps 689 mmHg 82%
    03:00 +3°C° 0,2 mm 4 mps 689 mmHg 81%
    04:00 +3°C° 0,2 mm 4 mps 688 mmHg 80%
    05:00 +3°C° 0,2 mm 4 mps 688 mmHg 78%
    06:00 +3°C° 0,2 mm 3 mps 688 mmHg 77%
    07:00 +3°C° 0,2 mm 3 mps 688 mmHg 76%
    08:00 +4°C° 0 mm 3 mps 689 mmHg 72%
    09:00 +4°C° 0 mm 4 mps 689 mmHg 67%
    10:00 +5°C° 0 mm 4 mps 689 mmHg 62%
    11:00 +6°C° 0,1 mm 4 mps 689 mmHg 60%
    12:00 +6°C° 0,1 mm 4 mps 689 mmHg 57%
    13:00 +7°C° 0,1 mm 4 mps 689 mmHg 55%
    14:00 +7°C° 0 mm 4 mps 689 mmHg 55%
    15:00 +8°C° 0 mm 3 mps 688 mmHg 55%
    16:00 +8°C° 0 mm 3 mps 688 mmHg 55%
    17:00 +8°C° 0,1 mm 2 mps 688 mmHg 60%
    18:00 +7°C° 0,1 mm 2 mps 688 mmHg 65%
    19:00 +7°C° 0,1 mm 1 mps 689 mmHg 70%
    20:00 +7°C° 0 mm 1 mps 689 mmHg 74%
    21:00 +7°C° 0 mm 1 mps 689 mmHg 78%
    22:00 +6°C° 0 mm 1 mps 690 mmHg 81%
    23:00 +5°C° 0,2 mm 2 mps 690 mmHg 84%

    20 Diciembre, Miércoles

    Tiempo Temperatura Precipitaciones Viento Presión Humedad
    00:00 +5°C° 0,2 mm 2 mps 690 mmHg 87%
    01:00 +5°C° 0,2 mm 2 mps 690 mmHg 90%
    02:00 +5°C° 0,3 mm 2 mps 690 mmHg 90%
    03:00 +4°C° 0,3 mm 3 mps 690 mmHg 91%
    04:00 +4°C° 0,3 mm 3 mps 690 mmHg 91%
    05:00 +3°C° 0 mm 3 mps 690 mmHg 91%
    06:00 +3°C° 0 mm 3 mps 691 mmHg 91%
    07:00 +3°C° 0 mm 4 mps 691 mmHg 91%
    08:00 +3°C° 0 mm 4 mps 691 mmHg 86%
    09:00 +4°C° 0 mm 4 mps 692 mmHg 82%
    10:00 +3°C° 0 mm 5 mps 692 mmHg 77%
    11:00 +5°C° 0 mm 5 mps 692 mmHg 77%
    12:00 +5°C° 0 mm 5 mps 692 mmHg 76%
    13:00 +4°C° 0 mm 6 mps 692 mmHg 76%
    14:00 +5°C° 0 mm 6 mps 692 mmHg 76%
    15:00 +5°C° 0 mm 7 mps 692 mmHg 75%
    16:00 +5°C° 0 mm 7 mps 692 mmHg 75%
    17:00 +4°C° 0 mm 7 mps 693 mmHg 77%
    18:00 +4°C° 0 mm 7 mps 693 mmHg 79%
    19:00 +3°C° 0 mm 6 mps 694 mmHg 82%
    20:00 +3°C° 0 mm 6 mps 694 mmHg 84%
    21:00 +2°C° 0 mm 5 mps 694 mmHg 87%
    22:00 +3°C° 0 mm 4 mps 694 mmHg 89%
    23:00 +1°C° 0 mm 4 mps 694 mmHg 90%

    21 Diciembre, Jueves

    Tiempo Temperatura Precipitaciones Viento Presión Humedad
    00:00 +1°C° 0 mm 4 mps 694 mmHg 92%
    01:00 0°C° 0 mm 4 mps 694 mmHg 93%
    02:00 0°C° 0 mm 4 mps 694 mmHg 92%
    03:00 0°C° 0 mm 4 mps 694 mmHg 92%
    04:00 0°C° 0 mm 4 mps 694 mmHg 92%
    05:00 0°C° 0 mm 4 mps 694 mmHg 91%
    06:00 0°C° 0 mm 4 mps 694 mmHg 90%
    07:00 0°C° 0 mm 3 mps 694 mmHg 90%
    08:00 0°C° 0 mm 4 mps 695 mmHg 85%
    09:00 +1°C° 0 mm 4 mps 695 mmHg 79%
    10:00 +3°C° 0 mm 4 mps 695 mmHg 74%
    11:00 +3°C° 0 mm 5 mps 695 mmHg 69%
    12:00 +4°C° 0 mm 6 mps 695 mmHg 64%
    13:00 +5°C° 0 mm 7 mps 695 mmHg 59%
    14:00 +5°C° 0 mm 7 mps 694 mmHg 62%
    15:00 +5°C° 0 mm 7 mps 694 mmHg 64%
    16:00 +5°C° 0 mm 8 mps 694 mmHg 66%
    17:00 +4°C° 0 mm 7 mps 694 mmHg 72%
    18:00 +4°C° 0 mm 7 mps 694 mmHg 77%
    19:00 +3°C° 0 mm 6 mps 694 mmHg 82%
    20:00 +3°C° 0 mm 6 mps 694 mmHg 84%
    21:00 +3°C° 0 mm 5 mps 694 mmHg 85%
    22:00 +3°C° 0 mm 5 mps 694 mmHg 87%
    23:00 +3°C° 0,1 mm 5 mps 694 mmHg 88%
    Mostrar más